Location: Poughquag
(41.6090°N, 73.6820°W)
Time: 01:25:07
(UTC-04:00)

Vanguard 1 - Pass Details

Date: 02 June 2020
Orbit: 650 x 3833 km, 34.2° (Epoch: 06 July)

Event Time Altitude Azimuth Distance (km) Brightness Sun altitude
Rises 08:48:49 0° 266° (W) 6,717 13.8 36.0°
Reaches altitude 10° 08:52:44 10° 264° (W) 6,015 13.7 36.7°
Maximum altitude 09:13:32 70° 187° (S) 3,974 13.8 40.6°
Drops below altitude 10° 09:35:47 10° 110° (ESE) 6,360 15.2 44.7°
Sets 09:40:04 0° 108° (ESE) 7,098 15.2 45.5°
